Location: Bagnolo San Vito
(45.0833°N, 10.8833°E)
Time: 00:05:54
(UTC+00:00)

Cosmos 2322 Rocket - Pass Details

Date: 03 March 2021
Orbit: 832 x 852 km, 71.0° (Epoch: 17 April)

Event Time Altitude Azimuth Distance (km) Brightness Sun altitude
Rises 19:07:14 0° 235° (SW) 3,367 5.9 -22.0°
Reaches altitude 10° 19:09:56 10° 246° (WSW) 2,437 5.3 -22.4°
Maximum altitude 19:14:52 31° 308° (NW) 1,428 3.9 -23.3°
Drops below altitude 10° 19:19:49 10° 9° (N) 2,456 4.7 -24.1°
Sets 19:22:34 0° 20° (NNE) 3,397 5.3 -24.6°
